[[{"header":{"parameterUnit":"m.s-1","parameterCategory":1,"la1":30.2991,"la2":30.254,"lo1":-89.0895,"lo2":-89.0444,"dy":0.0017,"dx":0.0017,"nx":28,"ny":28,"refTime":"2025-11-28T03:00:00:Z","depth":0,"parameterNumber":2,"parameterNumberName":"U-component_of_WINDS"},"data":[0,0,0,0,0,0,0,0,0,0,0,0,0,0,0,0,0,0,0,0,0,0,0,0,0,0,0,0,0,0,0,0,0,0,0,0,0,0,0,0,0,0,0,0,0,0,0,0,0,0,0,0,0,0,0,0,0,0,-6.7133,-6.7133,0,-6.7171,-6.7171,-6.7172,-6.6988,-6.6983,-6.6978,-6.6973,-6.701,-6.7016,-6.7022,0,0,0,0,0,0,0,0,0,0,0,0,0,-6.6899,-6.6904,-6.7133,-6.7133,-6.7134,-6.7171,-6.7172,-6.7172,-6.6989,-6.6983,-6.6976,-6.697,-6.7008,-6.7015,-6.7022,0,0,0,0,0,0,0,0,0,0,0,0,0,-6.6975,-6.6906,-6.7133,-6.7047,-6.704,-6.7171,-6.7172,-6.7172,-6.6991,-6.6983,-6.6975,-6.6967,-6.7006,-6.7014,-6.7023,-6.7238,0,0,-6.7051,-6.7054,0,0,0,0,0,0,0,0,-6.6971,-6.6984,-6.7059,-6.7053,-6.7045,-6.7067,-6.7102,-6.7194,-6.6993,-6.7009,-6.6972,-6.6963,-6.7035,-6.7041,-6.7066,-6.724,-6.7241,-6.7051,-6.7057,-6.7061,-6.7063,0,0,0,0,0,0,0,-6.6966,-6.6981,-6.7148,-6.7061,-6.7052,-6.7006,-6.7008,-6.7119,-6.7066,-6.7007,-6.6994,-6.7001,-6.703,-6.7058,-6.7065,-6.7242,-6.7051,-6.7059,-6.7064,-6.7068,-6.7591,-6.7599,0,0,0,0,0,0,-6.6973,-6.6978,-6.7147,-6.7149,-6.6988,-6.7017,-6.7019,-6.7068,-6.7065,-6.7057,-6.7008,-6.6992,-6.7046,-6.7055,-6.7066,-6.7314,-6.706,-6.7069,-6.7074,-6.7582,-6.7592,-6.7602,0,0,0,0,0,0,-6.6968,-6.6989,-6.7145,-6.706,-6.7076,-6.7029,-6.7086,-6.7073,-6.71,-6.7065,-6.7055,-6.7046,-6.704,-6.7053,-6.7196,-6.7313,-6.7073,-6.7081,-6.7572,-6.7585,-6.7597,-6.7815,0,0,0,0,0,0,-6.6962,-6.6989,-6.7071,-6.7063,-6.7082,-6.7276,-6.7093,-6.7079,-6.7116,-6.7097,-6.7098,-6.7091,-6.7035,-6.7184,-6.7205,-6.7321,-6.7088,-6.7561,-6.7578,-6.7593,-6.7797,-6.7834,-6.7865,0,0,0,0,0,-6.6955,-6.7131,-6.7076,-6.7097,-6.7183,-6.7283,-6.7293,-6.7226,-6.7127,-6.7208,-6.7185,-6.7091,-6.7298,-6.72,-6.7222,-6.7343,-6.7554,-6.7573,-6.7592,-6.7782,-6.7826,-6.7864,0,0,0,0,0,0,-6.7153,-6.7128,-6.7067,-6.7246,-6.7268,-6.7252,-6.7352,-6.7276,-6.7326,-6.7305,-6.7219,-6.7221,-6.7378,-6.7375,-6.7266,-6.7549,-6.7408,-6.7433,-6.7545,-6.7587,-6.762,-6.7616,-6.7095,0,0,0,0,0,-6.7218,-6.7302,-6.7275,-6.7436,-6.745,-6.74,-6.7441,-6.7387,-6.7406,-6.7414,-6.7402,-6.7424,-6.7492,-6.754,-6.7602,-6.7797,-6.7793,-6.7891,-6.7925,-6.7953,-6.7974,-6.8074,-6.8116,-6.7665,-6.7665,-6.7664,0,0,-6.7352,-6.7349,-6.7407,-6.7476,-6.7486,-6.7574,-6.7409,-6.7509,-6.7572,-6.7429,-6.7562,-6.7555,-6.7573,-6.7742,-6.7815,-6.7744,-6.8098,-6.7977,-6.8,-6.8006,-6.8098,-6.8141,-6.8179,-6.7678,-6.7675,-6.7673,0,0,-6.764,-6.7648,-6.7781,-6.7795,-6.7813,-6.7778,-6.7811,-6.7806,-6.7795,-6.7928,-6.7822,-6.7896,-6.8018,-6.8034,-6.8059,-6.8354,-6.8268,-6.8377,-6.8553,-6.8651,-6.8687,-6.8718,-6.882,-6.8858,-6.8399,-6.8399,-6.84,0,-6.7804,-6.7932,-6.7859,-6.7966,-6.7998,-6.7873,-6.8006,-6.8023,-6.8062,-6.8086,-6.8006,-6.8155,-6.8159,-6.8328,-6.84,-6.8426,-6.8458,-6.8374,-6.8688,-6.8718,-6.8746,-6.8842,-6.8881,-6.8412,-6.8411,-6.8409,-6.8408,0,-6.8131,-6.8222,-6.8327,-6.8366,-6.8411,-6.8531,-6.8474,-6.8528,-6.8472,-6.8445,-6.8581,-6.8581,-6.864,-6.8677,-6.8622,-6.8839,-6.8793,-6.8703,-6.8558,-6.8803,-6.8892,-6.8928,-6.843,-6.8426,-6.8422,-6.8419,0,0,-6.8543,-6.8541,-6.858,-6.8595,-6.8607,-6.8675,-6.8789,-6.8846,-6.8893,-6.8924,-6.9015,-6.9122,-6.9037,-6.9065,-6.9011,-6.9098,-6.9328,-6.8996,-6.8995,-6.9055,-6.9563,-6.9629,-6.9673,-6.9273,-6.928,-6.9285,-6.956,0,-6.8822,-6.9016,-6.8953,-6.9149,-6.923,-6.9114,-6.9212,-6.9229,-6.9208,-6.9273,-6.9249,-6.9325,-6.9209,-6.9225,-6.9306,-6.9283,-6.9428,-6.9263,-6.9355,-6.9359,-6.935,-6.972,-6.979,-7.005,-6.9595,-6.9601,-6.9605,0,-6.9174,-6.9218,-6.9422,-6.9418,-6.9449,-6.954,-6.9586,-6.9651,-6.9668,-6.9646,-6.9678,-6.9606,-6.9715,-6.9574,-6.9723,-6.9612,-6.9646,-6.9641,-6.9649,-6.9652,-6.9494,-6.973,-7.0131,-7.0169,-6.966,-6.9655,-6.9651,0,-6.9449,-6.9561,-6.9696,-6.9713,-6.9713,-6.9778,-6.9781,-6.979,-6.9828,-6.987,-6.9893,-6.9947,-6.9976,-7.0019,-6.9963,-6.9866,-7.012,-6.9974,-7.0102,-7.0104,-7.0158,-7.0155,-7.0567,-7.0187,-7.0186,-7.0186,-7.0185,0,-6.9766,-6.9894,-6.9819,-6.9903,-7.0043,-6.997,-7.011,-7.0099,-7.0108,-7.0186,-7.009,-7.0165,-7.0088,-7.0156,-7.0113,-7.0241,-7.0256,-7.024,-7.0226,-7.0246,-7.0248,-7.0265,-7.0244,-7.0196,-7.0194,-7.0192,-7.019,0,-7.0096,-7.0052,-7.0191,-7.0179,-7.0179,-7.0283,-7.0272,-7.0347,-7.032,-7.042,-7.0439,-7.0395,-7.047,-7.0419,-7.0495,-7.0466,-7.0633,-7.0596,-7.0627,-7.0615,-7.0745,-7.0732,-7.118,-7.1234,-7.0823,-7.0827,-7.083,0,-7.0299,-7.0395,-7.0394,-7.0439,-7.0448,-7.0523,-7.0561,-7.0493,-7.0537,-7.0563,-7.0635,-7.0702,-7.0751,-7.0876,-7.085,-7.0907,-7.0868,-7.1022,-7.0876,-7.0893,-7.0866,-7.086,-7.0868,-7.105,-7.1055,-7.1059,-7.1062,0,-7.0663,-7.0636,-7.0695,-7.0748,-7.0796,-7.0834,-7.0864,-7.0906,-7.0838,-7.0892,-7.0967,-7.1006,-7.1082,-7.1148,-7.1195,-7.1197,-7.1118,-7.1109,-7.114,-7.116,-7.1173,-7.1164,-7.0703,-7.1098,-7.1094,-7.1091,-7.1089,-7.1088,-7.0932,-7.1011,-7.1022,-7.1091,-7.1107,-7.1137,-7.1206,-7.1188,-7.125,-7.1306,-7.1263,-7.1352,-7.1365,-7.142,-7.1431,-7.1499,-7.1436,-7.1484,-7.1495,-7.1507,-7.1523,-7.1166,-7.1508,-7.1507,-7.1506,-7.1505,-7.1504,0,-7.1288,-7.1289,-7.1354,-7.1398,-7.1453,-7.1375,-7.1404,-7.1454,-7.1534,-7.1553,-7.1603,-7.1689,-7.1753,-7.1734,-7.179,-7.1848,-7.1813,-7.1865,-7.1858,-7.1859,-7.1578,-7.1543,-7.1892,-7.1892,-7.1892,-7.1892,-7.1892,-7.1892,-7.1479,-7.1607,-7.1582,-7.1717,-7.1717,-7.1803,-7.1826,-7.1853,-7.1867,-7.1967,-7.202,-7.2007,-7.201,-7.2066,-7.2121,-7.2114,-7.2138,-7.2202,-7.2181,-7.1918,-7.188,-7.1843,-7.1809,-7.2209,-7.2209,-7.2456,-7.2459,-7.246]},{"header":{"parameterUnit":"m.s-1","parameterCategory":1,"la1":30.2991,"la2":30.254,"lo1":-89.0895,"lo2":-89.0444,"dy":0.0017,"dx":0.0017,"nx":28,"ny":28,"refTime":"2025-11-28T03:00:00:Z","depth":0,"parameterNumber":3,"parameterNumberName":"V-component_of_WINDS"},"data":[0,0,0,0,0,0,0,0,0,0,0,0,0,0,0,0,0,0,0,0,0,0,0,0,0,0,0,0,0,0,0,0,0,0,0,0,0,0,0,0,0,0,0,0,0,0,0,0,0,0,0,0,0,0,0,0,0,0,-1.8994,-1.8994,0,-1.904,-1.904,-1.9041,-1.9055,-1.9054,-1.9054,-1.9054,-1.9099,-1.91,-1.9102,0,0,0,0,0,0,0,0,0,0,0,0,0,-1.8914,-1.8916,-1.8994,-1.8994,-1.8995,-1.9039,-1.904,-1.9041,-1.9055,-1.9054,-1.9054,-1.9054,-1.9099,-1.91,-1.9102,0,0,0,0,0,0,0,0,0,0,0,0,0,-1.8953,-1.8916,-1.8994,-1.9007,-1.9009,-1.9039,-1.904,-1.9041,-1.9055,-1.9054,-1.9054,-1.9054,-1.9098,-1.91,-1.9102,-1.9122,0,0,-1.9109,-1.9109,0,0,0,0,0,0,0,0,-1.8951,-1.8956,-1.9005,-1.9006,-1.9008,-1.9041,-1.9029,-1.9068,-1.9055,-1.9037,-1.9054,-1.9054,-1.908,-1.9083,-1.9093,-1.9124,-1.9126,-1.9109,-1.911,-1.9111,-1.9112,0,0,0,0,0,0,0,-1.8948,-1.8954,-1.9012,-1.9005,-1.9008,-1.901,-1.9015,-1.9036,-1.906,-1.9039,-1.904,-1.9045,-1.9081,-1.9091,-1.9094,-1.9126,-1.9109,-1.9111,-1.9112,-1.9113,-1.9173,-1.9173,0,0,0,0,0,0,-1.8944,-1.8952,-1.901,-1.9013,-1.8978,-1.9011,-1.9017,-1.9031,-1.906,-1.9064,-1.9046,-1.9046,-1.9087,-1.9091,-1.9096,-1.9119,-1.9111,-1.9113,-1.9114,-1.9172,-1.9173,-1.9173,0,0,0,0,0,0,-1.8942,-1.8949,-1.9008,-1.8983,-1.8991,-1.9013,-1.9028,-1.9032,-1.9042,-1.9065,-1.9069,-1.9052,-1.9087,-1.9093,-1.9115,-1.912,-1.9114,-1.9116,-1.9172,-1.9172,-1.9173,-1.9166,0,0,0,0,0,0,-1.894,-1.8948,-1.8957,-1.8983,-1.8992,-1.9028,-1.9029,-1.9033,-1.9046,-1.9046,-1.9071,-1.9075,-1.9087,-1.9111,-1.9117,-1.9123,-1.9117,-1.9172,-1.9172,-1.9173,-1.9166,-1.9166,-1.9167,0,0,0,0,0,-1.8937,-1.8953,-1.8957,-1.8964,-1.9004,-1.9028,-1.9033,-1.9048,-1.9046,-1.9054,-1.9068,-1.9074,-1.9119,-1.9113,-1.912,-1.9127,-1.9171,-1.9172,-1.9173,-1.9166,-1.9166,-1.9167,0,0,0,0,0,0,-1.8927,-1.8957,-1.8962,-1.8988,-1.9005,-1.9031,-1.9042,-1.9048,-1.9066,-1.9066,-1.9082,-1.9087,-1.9108,-1.912,-1.9113,-1.9146,-1.9145,-1.9147,-1.9138,-1.9138,-1.9139,-1.9135,-1.9119,0,0,0,0,0,-1.8928,-1.8947,-1.8972,-1.8992,-1.9,-1.9019,-1.9031,-1.904,-1.9059,-1.9066,-1.9082,-1.9099,-1.9117,-1.9128,-1.9146,-1.9167,-1.9172,-1.9175,-1.9175,-1.9176,-1.9177,-1.9187,-1.9188,-1.9176,-1.9176,-1.9176,0,0,-1.8931,-1.8949,-1.896,-1.899,-1.9005,-1.9023,-1.9026,-1.9045,-1.9057,-1.9069,-1.909,-1.9102,-1.9122,-1.9143,-1.9154,-1.9154,-1.9181,-1.9177,-1.9177,-1.9178,-1.9188,-1.9189,-1.919,-1.9176,-1.9176,-1.9176,0,0,-1.8944,-1.896,-1.8978,-1.8992,-1.9014,-1.9026,-1.903,-1.9054,-1.9063,-1.9085,-1.9093,-1.9107,-1.9138,-1.9151,-1.9162,-1.9176,-1.9182,-1.9182,-1.9184,-1.9193,-1.9194,-1.9195,-1.9199,-1.92,-1.9183,-1.9183,-1.9183,0,-1.8944,-1.8972,-1.8986,-1.9004,-1.9016,-1.9027,-1.9044,-1.9057,-1.9083,-1.9091,-1.909,-1.9127,-1.9142,-1.9165,-1.9168,-1.9177,-1.9181,-1.9179,-1.9193,-1.9194,-1.9195,-1.9199,-1.9201,-1.9183,-1.9183,-1.9183,-1.9183,0,-1.8969,-1.8988,-1.8999,-1.9024,-1.9038,-1.9055,-1.9071,-1.9082,-1.9089,-1.9101,-1.9121,-1.9138,-1.9159,-1.9165,-1.9172,-1.9189,-1.9188,-1.919,-1.919,-1.9196,-1.92,-1.9201,-1.9182,-1.9182,-1.9182,-1.9183,0,0,-1.8979,-1.9011,-1.9015,-1.9025,-1.9049,-1.9063,-1.9079,-1.9099,-1.9108,-1.9125,-1.9138,-1.9163,-1.9164,-1.9176,-1.9185,-1.9193,-1.9202,-1.9194,-1.9195,-1.9194,-1.9219,-1.9216,-1.9218,-1.9205,-1.9205,-1.9206,-1.9217,0,-1.8995,-1.9026,-1.9038,-1.9063,-1.9079,-1.9088,-1.9102,-1.9117,-1.9128,-1.9142,-1.9153,-1.9169,-1.9171,-1.9178,-1.9187,-1.9199,-1.9207,-1.9198,-1.9216,-1.9217,-1.9211,-1.922,-1.9219,-1.9229,-1.9218,-1.9219,-1.9219,0,-1.9017,-1.9034,-1.906,-1.908,-1.9087,-1.91,-1.9118,-1.9132,-1.9148,-1.9155,-1.9167,-1.9175,-1.919,-1.9188,-1.9209,-1.9203,-1.9211,-1.9218,-1.9218,-1.9221,-1.9218,-1.9222,-1.9232,-1.9233,-1.9221,-1.9221,-1.9221,0,-1.902,-1.9049,-1.9068,-1.9077,-1.9101,-1.9109,-1.9119,-1.9136,-1.9146,-1.9161,-1.9168,-1.9184,-1.9193,-1.9205,-1.9216,-1.9214,-1.9235,-1.9235,-1.9241,-1.924,-1.9245,-1.9245,-1.9256,-1.925,-1.925,-1.925,-1.925,0,-1.9036,-1.9051,-1.907,-1.9082,-1.9098,-1.9111,-1.9127,-1.9137,-1.9151,-1.9164,-1.9172,-1.9184,-1.9198,-1.921,-1.9219,-1.9234,-1.9238,-1.9243,-1.9245,-1.9242,-1.9242,-1.9248,-1.9247,-1.9251,-1.9251,-1.9251,-1.9251,0,-1.9042,-1.9056,-1.9077,-1.9097,-1.9102,-1.9113,-1.913,-1.9141,-1.9151,-1.9166,-1.9171,-1.9186,-1.9201,-1.9213,-1.9233,-1.9239,-1.9254,-1.9257,-1.9249,-1.925,-1.9255,-1.9254,-1.927,-1.9272,-1.9266,-1.9266,-1.9266,0,-1.9051,-1.9063,-1.9084,-1.9093,-1.9103,-1.9118,-1.9128,-1.9141,-1.9151,-1.9169,-1.9177,-1.9193,-1.9206,-1.9229,-1.9242,-1.9256,-1.9259,-1.9263,-1.9261,-1.9257,-1.9258,-1.9257,-1.9258,-1.9264,-1.9264,-1.9264,-1.9264,0,-1.9065,-1.907,-1.9085,-1.9102,-1.9114,-1.9127,-1.9141,-1.9148,-1.9162,-1.9173,-1.9188,-1.9199,-1.9218,-1.9233,-1.9249,-1.9258,-1.9263,-1.9264,-1.9266,-1.9263,-1.9258,-1.926,-1.9249,-1.9264,-1.9264,-1.9264,-1.9264,-1.9264,-1.9072,-1.9083,-1.9098,-1.9114,-1.9125,-1.9137,-1.9148,-1.9159,-1.9172,-1.9189,-1.9195,-1.9211,-1.9225,-1.9246,-1.9255,-1.9266,-1.9267,-1.927,-1.9271,-1.9271,-1.927,-1.9256,-1.9269,-1.9269,-1.9269,-1.9269,-1.9269,0,-1.9086,-1.9096,-1.911,-1.9129,-1.914,-1.9144,-1.9159,-1.9168,-1.9182,-1.9194,-1.9207,-1.9224,-1.9238,-1.925,-1.9265,-1.9271,-1.9274,-1.9274,-1.9274,-1.9276,-1.927,-1.9266,-1.9272,-1.9272,-1.9272,-1.9272,-1.9272,-1.9272,-1.9094,-1.9111,-1.9118,-1.914,-1.9149,-1.9165,-1.9173,-1.9183,-1.9193,-1.9212,-1.9224,-1.9232,-1.9244,-1.9259,-1.9271,-1.9274,-1.9279,-1.9279,-1.9282,-1.9277,-1.9276,-1.9276,-1.9273,-1.928,-1.928,-1.9288,-1.9288,-1.9288]}]]